Change the Weather History Date:

Monday, April 7, 2014

  Actual Average Record
Temperature  
Mean Temperature 52 °F 52 °F  
Max Temperature 66 °F 65 °F 81 °F (2001)
Min Temperature 38 °F 40 °F 19 °F (2007)
Degree Days  
Heating Degree Days 13 13  
Month to date heating degree days 123 99  
Since 1 July heating degree days 5290 4755  
Cooling Degree Days 0 0  
Month to date cooling degree days 0 0  
Year to date cooling degree days 0 3  
Growing Degree Days 2 (Base 50)    
Moisture  
Dew Point 38 °F    
Average Humidity 60    
Maximum Humidity 85    
Minimum Humidity 34    
Precipitation  
Precipitation 0.00 in 0.10 in 0.56 in (2013)
Month to date precipitation 1.22 0.59  
Year to date precipitation 3.24 5.52  
Sea Level Pressure  
Sea Level Pressure 29.80 in    
Wind  
Wind Speed 8 mph (NW)    
Max Wind Speed 28 mph    
Max Gust Speed 35 mph    
Visibility 9 miles    
Events      
T = Trace of Precipitation, MM = Missing Value Source: NWS Daily Summary

Daily Weather History Graph

Daily Weather History Graph

Search for Another Location

Airport or City:

Trip Planner

Search our weather history database for the weather conditions in past years. The results will help you decide how hot, cold, wet, or windy it might be!

Date:

Astronomy

Apr. 07, 2014 Rise Set
Actual Time 6:56 AM CDT 7:50 PM CDT
Civil Twilight 6:28 AM CDT 8:17 PM CDT
Nautical Twilight 5:56 AM CDT 8:49 PM CDT
Astronomical Twilight 5:23 AM CDT 9:23 PM CDT
Moon 12:54 PM CDT (4/7) 2:26 AM CDT (4/7)
Length of Visible Light 13h 48m
Length of Day
12h 54m
First Quarter, 53% of the Moon is Illuminated
Apr 7
First Quarter
Apr 15
Full
Apr 22
Last Quarter
Apr 29
New
May 6
First Quarter

Hourly Weather History & Observations

Time (CDT) Temp. Windchill Dew Point Humidity Pressure Visibility Wind Dir Wind Speed Gust Speed Precip Events Conditions
12:52 AM 46.0 °F 44.8 °F 39.0 °F 76% 29.84 in 8.0 mi NW 3.5 mph - N/A   Overcast
1:52 AM 44.1 °F 42.5 °F 39.0 °F 82% 29.81 in 7.0 mi NNW 3.5 mph - N/A   Overcast
2:52 AM 42.1 °F 40.2 °F 37.0 °F 82% 29.77 in 7.0 mi NW 3.5 mph - N/A   Clear
3:52 AM 39.9 °F 37.8 °F 36.0 °F 86% 29.77 in 7.0 mi South 3.5 mph - N/A   Clear
4:52 AM 42.1 °F - 37.9 °F 85% 29.77 in 6.0 mi Calm Calm - N/A   Overcast
5:52 AM 44.1 °F 42.5 °F 39.0 °F 82% 29.78 in 7.0 mi WNW 3.5 mph - N/A   Overcast
6:52 AM 44.1 °F 42.5 °F 39.9 °F 85% 29.80 in 7.0 mi NW 3.5 mph - N/A   Overcast
7:52 AM 46.0 °F 43.1 °F 41.0 °F 83% 29.81 in 5.0 mi WNW 5.8 mph - N/A   Haze
8:52 AM 48.9 °F - 41.0 °F 74% 29.81 in 6.0 mi NW 8.1 mph - N/A   Haze
9:52 AM 53.1 °F - 41.0 °F 64% 29.81 in 7.0 mi WNW 4.6 mph - N/A   Mostly Cloudy
10:52 AM 57.0 °F - 39.9 °F 53% 29.81 in 10.0 mi NW 10.4 mph - N/A   Overcast
11:52 AM 62.1 °F - 37.9 °F 41% 29.80 in 10.0 mi NW 8.1 mph - N/A   Mostly Cloudy
12:52 PM 64.9 °F - 36.0 °F 34% 29.79 in 10.0 mi WNW 13.8 mph 21.9 mph N/A   Scattered Clouds
1:52 PM 64.0 °F - 36.0 °F 35% 29.79 in 10.0 mi NW 13.8 mph - N/A   Mostly Cloudy
2:52 PM 63.0 °F - 37.0 °F 38% 29.78 in 10.0 mi NNW 16.1 mph - N/A   Mostly Cloudy
3:52 PM 62.1 °F - 39.9 °F 44% 29.78 in 9.0 mi NW 13.8 mph 23.0 mph N/A   Overcast
4:52 PM 63.0 °F - 39.9 °F 43% 29.77 in 10.0 mi WNW 13.8 mph - N/A   Mostly Cloudy
5:52 PM 62.1 °F - 39.0 °F 43% 29.78 in 10.0 mi NW 17.3 mph - N/A   Partly Cloudy
6:52 PM 59.0 °F - 35.1 °F 41% 29.80 in 10.0 mi North 12.7 mph 23.0 mph N/A   Mostly Cloudy
7:52 PM 55.0 °F - 39.0 °F 55% 29.81 in 10.0 mi West 5.8 mph - N/A   Clear
8:52 PM 52.0 °F - 39.0 °F 61% 29.84 in 10.0 mi NNW 3.5 mph - N/A   Partly Cloudy
9:52 PM 46.0 °F 43.1 °F 39.0 °F 76% 29.86 in 10.0 mi NW 5.8 mph - N/A   Scattered Clouds
10:52 PM 46.9 °F - 37.9 °F 71% 29.86 in 10.0 mi NW 6.9 mph - N/A   Clear
11:52 PM 45.0 °F 40.1 °F 36.0 °F 71% 29.88 in 10.0 mi NNW 9.2 mph - N/A   Clear